Location: Los Ranchitos
(37.9930°N, 122.5425°W)
Time: 03:18:22
(UTC+00:00)

Cosmos 2285 Rocket - Pass Details

Date: 21 September 2020
Orbit: 970 x 1000 km, 74.0° (Epoch: 27 October)

Event Time Altitude Azimuth Distance (km) Brightness Sun altitude
Rises 03:23:57 0° 179° (S) 3,646 6.9 -15.4°
Reaches altitude 10° 03:26:33 10° 173° (S) 2,705 6.1 -15.9°
Maximum altitude 03:32:29 47° 102° (ESE) 1,275 4.2 -17.1°
Drops below altitude 10° 03:38:29 10° 30° (NNE) 2,735 6.2 -18.2°
Sets 03:41:08 0° 25° (NNE) 3,691 6.9 -18.7°
